Погода в Бока-Ратоне

США     26°21′41″N   80°04′56″W
темп.,
°C
ветер,
м/с
пор.,
м/с
влажн.,
%
обл.,
%
осадки,
мм/ч
давл.,
гПа
погр.,
м
7 июля, чт
чт723:00+29ююв457173 0.0 1017770
02:00+28юв3471100 0.8 1017680
05:00+28юв4470100 1.1 1016892
08:00+28юв4470100 1.1 1017923
11:00+29юв5465100 0.1 10181113
14:00+30вюв556258 0.1 10181100
17:00+30вюв666530 0.0 10171149
20:00+29вюв666140 0.0 1017979
8 июля, пт
пт823:00+29вюв666987 0.0 10171075
02:00+29юв566826 0.1 10171111
05:00+29вюв567085 0.3 1017966
08:00+29вюв567193 0.8 1018948
11:00+30вюв566780 0.3 10191107
14:00+30юв55675 1.5 10191043
17:00+30вюв5567100 3.4 1018819
20:00+29юв667062 3.6 1018782
9 июля, сб
сб923:00+29юв677114 0.0 1020947
02:00+29юв567124 0.3 1019934
05:00+29ююв457442 0.3 1018813
08:00+28ююв457330 0.9 1019809
11:00+29ююв457018 0.9 1020806
14:00+30ююв55665 1.1 1019980
17:00+30ююв66675 0.0 1018835
20:00+29ююв55694 0.0 1018588
10 июля, вс
вс1023:00+29ююв667116 0.3 1018634
02:00+29ю45685 0.4 1017908
05:00+29ю446916 0.0 1017931
08:00+29ю44717 0.3 1017783
11:00+29ююв55698 0.9 1018829
14:00+30ююв66650 1.1 1016686
17:00+30ююв776717 0.3 1015676
20:00+29ююв556815 1.7 1015588
11 июля, пн
пн1123:00+29ююв66690 1.3 1016551
02:00+29ю45721 2.6 1015692
05:00+29ю34714 0.0 1014720
08:00+29ю34717 0.1 1015832
11:00+30ююв44674 1.6 1016881
14:00+30юв55655 1.7 1015755
17:00+30юв656694 0.0 1014809
20:00+30юв677029 0.0 1014818